Weather History for Tekamah, NE

Change the Weather History Date:

Friday, April 26, 2013

  Actual Average Record
Temperature  
Mean Temperature 60 °F -  
Max Temperature 75 °F 71 °F 93 °F (1981)
Min Temperature 46 °F 45 °F 25 °F (1950)
Degree Days  
Heating Degree Days 4    
Growing Degree Days 10 (Base 50)    
Moisture  
Dew Point 41 °F    
Average Humidity 49    
Maximum Humidity 77    
Minimum Humidity 27    
Precipitation  
Precipitation 0.00 in - - ()
Sea Level Pressure  
Sea Level Pressure 30.05 in    
Wind  
Wind Speed 15 mph (South)    
Max Wind Speed 25 mph    
Max Gust Speed 24 mph    
Visibility 10 miles    
Events      
Averages and records for this station are not official NWS values.
T = Trace of Precipitation, MM = Missing Value Source: NWS Daily Summary

Daily Weather History Graph

Daily Weather History Graph

Search for Another Location

Airport:

Trip Planner

Search our weather history database for the weather conditions in past years. The results will help you decide how hot, cold, wet, or windy it might be!

Date:

Astronomy

Apr. 26, 2013 Rise Set
Actual Time 6:27 AM CDT 8:17 PM CDT
Civil Twilight 5:57 AM CDT 8:47 PM CDT
Nautical Twilight 5:21 AM CDT 9:24 PM CDT
Astronomical Twilight 4:42 AM CDT 10:03 PM CDT
Moon 9:43 PM CDT (4/26) 6:55 AM CDT (4/26)
Length of Visible Light 14h 50m
Length of Day
13h 50m
Full, 99% of the Moon is Illuminated
Apr 26
Full
May 2
Last Quarter
May 9
New
May 17
First Quarter
May 24
Full

Hourly Weather History & Observations

Time (CDT) Temp. Dew Point Humidity Pressure Visibility Wind Dir Wind Speed Gust Speed Precip Events Conditions
12:54 AM 54.0 °F 37.0 °F 53% 30.03 in 10.0 mi South 17.3 mph - N/A   Clear
1:54 AM 54.0 °F 36.0 °F 51% 30.02 in 10.0 mi South 18.4 mph - N/A   Clear
2:54 AM 54.0 °F 37.0 °F 53% 30.01 in 10.0 mi South 20.7 mph - N/A   Clear
3:54 AM 52.0 °F 37.0 °F 57% 29.99 in 10.0 mi South 19.6 mph - N/A   Clear
4:54 AM 51.1 °F 36.0 °F 56% 29.99 in 10.0 mi South 17.3 mph - N/A   Clear
5:54 AM 48.9 °F 36.0 °F 61% 29.99 in 10.0 mi South 12.7 mph - N/A   Clear
6:54 AM 46.9 °F 36.0 °F 66% 30.00 in 8.0 mi SSE 10.4 mph - N/A   Clear
7:54 AM 53.1 °F 37.9 °F 57% 30.03 in 10.0 mi South 11.5 mph - N/A   Clear
8:54 AM 59.0 °F 39.9 °F 49% 30.03 in 10.0 mi South 20.7 mph - N/A   Clear
9:54 AM 62.1 °F 41.0 °F 46% 30.04 in 10.0 mi SSW 25.3 mph - N/A   Clear
10:54 AM 64.0 °F 42.1 °F 45% 30.06 in 10.0 mi SSW 18.4 mph - N/A   Clear
11:54 AM 68.0 °F 42.1 °F 39% 30.06 in 10.0 mi SSW 16.1 mph 24.2 mph N/A   Clear
12:54 PM 70.0 °F 42.1 °F 36% 30.06 in 10.0 mi SSW 17.3 mph 24.2 mph N/A   Clear
1:54 PM 72.0 °F 39.9 °F 31% 30.05 in 10.0 mi South 9.2 mph - N/A   Clear
2:54 PM 73.9 °F 37.9 °F 27% 30.04 in 10.0 mi South 9.2 mph - N/A   Clear
3:54 PM 75.0 °F 42.1 °F 31% 30.04 in 10.0 mi SSE 11.5 mph - N/A   Clear
4:54 PM 75.0 °F 41.0 °F 29% 30.04 in 10.0 mi SSW 8.1 mph - N/A   Clear
5:54 PM 75.0 °F 41.0 °F 29% 30.04 in 10.0 mi SSE 11.5 mph - N/A   Clear
6:54 PM 73.0 °F 39.9 °F 30% 30.06 in 10.0 mi SE 6.9 mph - N/A   Clear
7:54 PM 64.9 °F 48.9 °F 56% 30.08 in 10.0 mi South 17.3 mph - N/A   Clear
8:54 PM 61.0 °F 48.0 °F 62% 30.10 in 10.0 mi South 10.4 mph - N/A   Clear
9:54 PM 55.9 °F 46.9 °F 72% 30.13 in 9.0 mi SSE 9.2 mph - N/A   Clear
10:54 PM 55.9 °F 46.9 °F 72% 30.17 in 9.0 mi South 8.1 mph - N/A   Scattered Clouds
11:54 PM 52.0 °F 45.0 °F 77% 30.19 in 8.0 mi South 5.8 mph - N/A   Clear